sat.trackr.live / text

‹ back to catalog

STARLINK-4359

NORAD 53226 · 2022-084AP

PAYLOAD ACTIVE UNKNOWN

§ Identity

Operator
Country
US
Launch date
2022-07-22
Launch site
AFWTR
Launch vehicle
Mass (kg)
RCS (m²)

Purposes: comms

External: N2YO · Heavens-Above · Gunter

§ Orbital elements

Epoch: 2026-09-19T09:21:45.047808Z

Period
93.91 min
Inclination
97.2835°
Eccentricity
0.0001577
Mean motion
15.33441812 rev/d
Perigee alt
464.5 km
Apogee alt
466.6 km
Semi-major
6,843.7 km
B*
8.7835e-5
RAAN
317.2092°
Arg perigee
82.2639°
Mean anomaly
277.8783°
Rev number
22,852

§ Raw data

STARLINK-43591 53226U 22084AP  26262.39010472  .00002761  00000+0  87835-4 0  99982 53226  97.2835 317.2092 0001577  82.2639 277.8783 15.33441812228521

JSON: /api/v1/satellites/53226 · /tle

For live sub-satellite position, see the globe view (requires WebGL).

§ Visibility from observer

Set your observer location to see the next 7 days of passes ≥ 10°. The values pass through the URL so the page stays shareable.

No JS? Fill the form by hand. The geolocation button needs JavaScript.